Regional Weather Roundup
Issued by NWS

Home | Current Version | Previous Version | Text Only | Print | Product List | Glossary Off
Versions: 1 2 3 4 5 6 7 8 9 10 11 12 13 14 15 16 17 18 19 20 21 22 23 24 25 26 27 28 29 30 31 32 33 34 35 36 37 38 39 40 41 42 43 44 45 46 47 48 49 50

000
ASUS45 KBOU 250907
RWRCO

WEATHER ROUNDUP FOR COLORADO
NATIONAL WEATHER SERVICE DENVER/BOULDER CO
300 AM MDT MON MAY 25 2015

NOTE: "FAIR" INDICATES FEW OR NO CLOUDS BELOW 12000 FEET WITH NO
SIGNIFICANT WEATHER AND/OR OBSTRUCTIONS TO VISIBILITY.

COZ001>005-013-030-031-251000-
...NORTHWEST COLORADO...

CITY           SKY/WX    TMP DP  RH WIND       PRES   REMARKS
CRAIG          CLOUDY    44  39  82 CALM      29.97S
HAYDEN         CLOUDY    41  37  87 SW3       29.97S
MEEKER         LGT RAIN  40  38  93 CALM      29.98S
MOUNT WERNER   NOT AVBL
STEAMBOAT SPGS CLOUDY    38  37  97 E3        29.98S
WALDEN         CLOUDY    36  32  87 CALM      29.97F
$$

COZ006>008-011-251000-
...WEST CENTRAL VALLEYS...

CITY           SKY/WX    TMP DP  RH WIND       PRES   REMARKS
GRAND JUNCTION LGT RAIN  46  46 100 S5        29.94S
MONTROSE       LGT RAIN  47  46  97 NW9       29.99R
EAGLE          PTCLDY    39  37  93 E6        30.00S
RIFLE          CLOUDY    45  41  86 S3        29.97S
DELTA          CLOUDY    49  46  89 MISG      29.96S
NUCLA          CLOUDY    46  45  93 SE3       30.00S
$$

COZ017>023-064>068-251000-
...SOUTHWEST COLORADO...

CITY           SKY/WX    TMP DP  RH WIND       PRES   REMARKS
DURANGO        LGT RAIN  42  40  92 E3        30.00S
CORTEZ         MOCLDY    46  42  86 CALM      29.97S
PAGOSA SPRINGS CLOUDY    39  39  99 CALM      30.04S
TELLURIDE      CLOUDY    38  35  88 SE3       30.06S
WOLF CREEK PAS NOT AVBL
$$

COZ009-010-012-014-032>034-037-058>063-251000-
...CENTRAL COLORADO...

CITY           SKY/WX    TMP DP  RH WIND       PRES   REMARKS
ASPEN          CLOUDY    35  34  96 CALM      30.00S
BUENA VISTA    DRIZZLE   41  35  79 NW10      29.97S
COPPER MTN     CLOUDY    30  27  86 W16       30.07R WCI  19
BERTHOUD PASS  CLOUDY    21  14  73 NW17G25   30.07R WCI   7
COTTONWOOD PAS LGT SNOW  36  32  87 W7        30.02S
GUNNISON       CLOUDY    39  32  75 N7        30.02R
KREMMLING      CLOUDY    37  36  93 CALM      30.00R
LEADVILLE      CLOUDY    31  31 100 CALM      30.01S
SALIDA         CLOUDY    47  35  63 SW3       30.03R
SUNLIGHT       FOG       32  32 100 CALM      30.10R VSB 1/2
WILKERSON PASS SNOW      30  28  93 W5        30.07S VSB 1/2 WCI  25
$$

COZ069>075-251000-
...SAN LUIS VALLEY/SANGRE DE CRISTO MOUNTAINS...

CITY           SKY/WX    TMP DP  RH WIND       PRES   REMARKS
ALAMOSA        PTCLDY    36  33  89 S6        29.98F
LA VETA PASS   CLOUDY   N/A N/A N/A MISG      30.04F
SAGUACHE       MOCLDY    41  36  81 CALM      29.99F
$$

COZ035-036-038>040-251000-
...NORTHERN COLORADO FRONT RANGE...

CITY           SKY/WX    TMP DP  RH WIND       PRES   REMARKS
DENVER INTL AP MOCLDY    45  40  82 SW6       29.87F
DMNS CITY PARK   N/A     44  41  89 SW2G9     29.89R
AURORA         MOCLDY    42  40  91 S6        29.89S
FRONT RANGE AP PTCLDY    43  43 100 SW6       29.89S
ERIE MUNI ARPT MOCLDY    43  40  92 SW3       29.87S
BOULDER MUN AP PTCLDY    45  41  87 S3        29.87S
CENTENNIAL     MOCLDY    43  40  89 SW5       29.89S
BROOMFIELD     MOCLDY    45  37  76 CALM      29.89S
FORT COLLINS   MOCLDY    46  43  87 CALM      29.88S
LONGMONT       MOCLDY    45  43  91 NW3       29.89S
$$

COZ041-046-047-076>085-087-088-251000-
...PIKES PEAK/PALMER DIVIDE AND SOUTHERN FOOTHILLS...

CITY           SKY/WX    TMP DP  RH WIND       PRES   REMARKS
COLO. SPRINGS  MOCLDY    47  39  74 NW6       29.90S
A. F. ACADEMY  MOCLDY    43  39  85 NW8       29.90S
ELLICOTT       NOT AVBL
FALCON         CLOUDY    45  37  74 NW7       29.91F
FORT CARSON    MOCLDY    46  41  85 NW7       29.88S
LIMON          PTCLDY    42  40  92 W9        29.86F
MONUMENT HILL  NOT AVBL
TRINIDAD       PTCLDY    42  38  85 W6        29.89R
$$

COZ042>045-048>051-090-091-251000-
...NORTHEAST COLORADO...

CITY           SKY/WX    TMP DP  RH WIND       PRES   REMARKS
GREELEY ARPT   PTCLDY    46  43  87 NW3       29.86S
AKRON          CLOUDY    45  44  97 W9        29.82S
BURLINGTON     PTCLDY    46  44  93 W8        29.82R
WRAY           CLOUDY   N/A N/A N/A CALM      29.80R
STERLING       CLOUDY    48  46  93 W6        29.80S
HOLYOKE        NOT AVBL
FORT MORGAN    CLOUDY    45  43  91 W6        29.84S
$$

COZ086-089-092>099-251000-
...SOUTHEAST COLORADO...

CITY           SKY/WX    TMP DP  RH WIND       PRES   REMARKS
PUEBLO         PTCLDY    46  43  89 NW8       29.86S
LA JUNTA       PTCLDY    47  45  93 SW9       29.84R
LAMAR          CLEAR     45  44  97 W3        29.79F
SPRINGFIELD      N/A     45  41  86 NW8       29.82S
$$



USA.gov is the U.S. government's official web portal to all federal, state and local government web resources and services.